TimeEDT,TemperatureF,Dew PointF,Humidity,Sea Level PressureIn,VisibilityMPH,Wind Direction,Wind SpeedMPH,Gust SpeedMPH,PrecipitationIn,Events,Conditions,WindDirDegrees,DateUTC
12:55 AM,28.9,27.0,92,30.44,1.0,ENE,6.9,-,0.10,Snow,Light Snow,70,2014-04-17 04:55:00
1:17 AM,28.9,27.0,92,30.42,1.2,East,6.9,-,0.01,Snow,Light Snow,80,2014-04-17 05:17:00
1:42 AM,28.9,27.0,92,30.41,1.2,ENE,6.9,-,0.03,Snow,Light Snow,70,2014-04-17 05:42:00
1:55 AM,28.9,26.1,89,30.44,1.8,East,8.1,-,0.03,Snow,Light Snow,80,2014-04-17 05:55:00
2:08 AM,28.9,27.0,92,30.41,2.0,East,6.9,-,0.00,Snow,Light Snow,80,2014-04-17 06:08:00
2:17 AM,28.9,26.1,89,30.40,3.0,ENE,8.1,-,0.00,Snow,Light Snow,70,2014-04-17 06:17:00
2:41 AM,28.9,26.1,89,30.41,3.0,East,5.8,-,0.01,Snow,Light Snow,90,2014-04-17 06:41:00
2:47 AM,28.9,27.0,92,30.41,1.8,East,8.1,-,0.01,Snow,Light Snow,90,2014-04-17 06:47:00
2:55 AM,28.9,27.0,92,30.43,1.8,East,9.2,-,0.01,Snow,Light Snow,90,2014-04-17 06:55:00
3:15 AM,28.9,27.0,92,30.41,0.8,East,5.8,-,0.01,Snow,Light Snow,80,2014-04-17 07:15:00
3:35 AM,28.9,27.0,92,30.41,1.0,East,8.1,-,0.03,Snow,Light Snow,90,2014-04-17 07:35:00
3:55 AM,28.9,27.0,92,30.43,0.8,East,8.1,-,0.05,Snow,Light Snow,90,2014-04-17 07:55:00
4:52 AM,28.4,26.6,93,30.41,1.0,East,10.4,17.3,0.06,Snow,Light Snow,100,2014-04-17 08:52:00
4:55 AM,28.9,26.1,89,30.43,1.0,East,9.2,-,0.07,Snow,Light Snow,90,2014-04-17 08:55:00
5:12 AM,28.9,26.1,89,30.41,0.8,East,9.2,-,0.01,Snow,Light Snow,100,2014-04-17 09:12:00
5:18 AM,28.9,26.1,89,30.41,1.0,ESE,12.7,-,0.01,Snow,Light Snow,110,2014-04-17 09:18:00
5:46 AM,28.0,26.1,92,30.40,1.0,East,12.7,19.6,0.04,Snow,Light Snow,100,2014-04-17 09:46:00
5:55 AM,28.0,26.1,92,30.42,1.2,ESE,10.4,-,0.04,Snow,Light Snow,110,2014-04-17 09:55:00
6:53 AM,28.4,26.6,93,30.40,0.8,East,9.2,-,0.03,Snow,Light Snow,100,2014-04-17 10:53:00
6:55 AM,28.0,26.1,92,30.43,1.0,East,8.1,-,0.03,Snow,Light Snow,100,2014-04-17 10:55:00
7:05 AM,28.0,26.1,92,30.40,0.5,ESE,9.2,-,0.01,Fog-Snow,Light Snow,110,2014-04-17 11:05:00
7:55 AM,28.9,26.1,89,30.43,1.5,East,12.7,20.7,0.04,Snow,Light Snow,100,2014-04-17 11:55:00
8:15 AM,28.9,26.1,89,30.39,3.0,East,12.7,20.7,0.00,Snow,Light Snow,100,2014-04-17 12:15:00
8:55 AM,30.0,26.1,85,30.43,10.0,East,10.4,21.9,0.00,,Overcast,100,2014-04-17 12:55:00
9:55 AM,30.9,25.0,79,30.39,10.0,East,15.0,21.9,N/A,,Overcast,100,2014-04-17 13:55:00
10:55 AM,34.0,24.1,67,30.36,10.0,ESE,18.4,29.9,N/A,,Mostly Cloudy,120,2014-04-17 14:55:00
12:55 PM,35.1,24.1,64,30.32,10.0,ESE,17.3,28.8,N/A,,Partly Cloudy,120,2014-04-17 16:55:00
1:55 PM,37.0,24.1,59,30.28,10.0,ESE,15.0,27.6,N/A,,Overcast,110,2014-04-17 17:55:00
2:55 PM,37.0,24.1,59,30.27,10.0,ESE,18.4,29.9,N/A,,Overcast,110,2014-04-17 18:55:00
3:55 PM,37.0,24.1,59,30.27,10.0,ESE,15.0,25.3,N/A,,Overcast,120,2014-04-17 19:55:00
4:55 PM,37.9,25.0,60,30.27,10.0,ESE,11.5,23.0,N/A,,Overcast,120,2014-04-17 20:55:00
5:55 PM,37.0,25.0,62,30.27,10.0,East,6.9,-,N/A,,Overcast,100,2014-04-17 21:55:00
6:55 PM,37.9,26.1,62,30.26,10.0,Variable,6.9,-,N/A,,Overcast,0,2014-04-17 22:55:00
7:55 PM,37.9,26.1,62,30.25,10.0,ESE,8.1,-,N/A,,Overcast,110,2014-04-17 23:55:00
8:55 PM,37.9,26.1,62,30.25,10.0,SE,5.8,-,N/A,,Overcast,130,2014-04-18 00:55:00
9:55 PM,37.0,26.1,65,30.25,10.0,SE,6.9,-,N/A,,Overcast,130,2014-04-18 01:55:00
10:55 PM,37.9,25.0,60,30.23,10.0,East,5.8,-,N/A,,Overcast,100,2014-04-18 02:55:00
11:55 PM,36.0,26.1,67,30.23,10.0,Calm,Calm,-,N/A,,Partly Cloudy,0,2014-04-18 03:55:00